Regional Weather Roundup
Issued by NWS Newport/Morehead, NC

Current Version | Previous Version | Graphics & Text | Print | Product List | Glossary Off
Versions: 1 2 3 4 5 6 7 8 9 10 11 12 13 14 15 16 17 18 19 20 21 22 23 24 25 26 27 28 29 30 31 32 33 34 35 36 37 38 39 40 41 42 43 44 45 46 47 48 49 50

000
ASUS42 KMHX 271827
RWRMHX
WEATHER ROUNDUP FOR EASTERN NORTH CAROLINA
NATIONAL WEATHER SERVICE NEWPORT/MOREHEAD CITY NC
200 PM EDT FRI MAR 27 2015

NOTE: "FAIR" INDICATES FEW OR NO CLOUDS BELOW 12,000 FEET
WITH NO SIGNIFICANT WEATHER AND/OR OBSTRUCTIONS TO VISIBILITY

NCZ015>017-031-032-045>047-102-103-271900-
NORTH COAST

CITY           SKY/WX    TMP DP  RH WIND       PRES   REMARKS
EDENTON        LGT RAIN  45  43  93 NE15G21   29.76F
ELIZABETH CITY LGT RAIN  45  43  93 N13G24    29.74F
KITTY HAWK     CLOUDY    42  41  95 N14G24    29.74R FOG
MANTEO         CLOUDY    42  41  96 N21G33    29.76R FOG

$$

NCZ045>047-081-094-103-104-271900-
CENTRAL COAST

CITY           SKY/WX    TMP DP  RH WIND       PRES   REMARKS
FRISCO         CLOUDY    47  43  86 N10G24    29.70F
SWANQUARTER      N/A     46 N/A N/A NE18G30   29.71R

$$

NCZ095-097-098-100-101-271900-
SOUTHERN COAST

CITY           SKY/WX    TMP DP  RH WIND       PRES   REMARKS
BEAUFORT       CLOUDY    51  49  92 NE14G23   29.69S
CEDAR ISLAND     N/A     48 N/A N/A N22       29.77S
JACKSONVILLE   LGT RAIN  51  47  86 N16G25    29.70R
PINEY ISLAND   LGT SNOW N/A N/A N/A N20G26    29.72R
WILMINGTON     LGT RAIN  55  51  86 N13       29.67R


$$

NCZ011>013-027>030-043-044-078>080-089-090>093-098-271900-
COASTAL PLAIN

CITY           SKY/WX    TMP DP  RH WIND       PRES   REMARKS
AHOSKIE        LGT RAIN  44  42  91 N14       29.80R
CLINTON        RAIN      48  47  98 NE9G17    29.70F
ELIZABETHTOWN  RAIN      49  49  99 N6        29.69F
GOLDSBORO      LGT RAIN  47  47  99 NE14G23   29.68F
GREENVILLE     LGT RAIN  46  45  93 NE14      29.77F
HAVELOCK       LGT RAIN  50  47  89 NE15      29.72R FOG
KENANSVILLE    LGT RAIN  47  46  95 NE7G17    29.71F
KINSTON        RAIN      48  46  93 N13G20    29.72F
NEW BERN       LGT RAIN  49  46  90 N15       29.73R
RICHLANDS      CLOUDY    48  45  87 NE16G23   29.70F
ROCKY MOUNT    CLOUDY    46  43  89 N20       29.74F
WASHINGTON     RAIN      46  43  92 NE13      29.76R
WHITEVILLE     CLOUDY    52  49  91 N7        29.67F

$$

AMZ130-135-150-152-154-156-158-170-250-252-270-ANZ085-086-088-633-658-670-271900-
MARINE OBSERVATIONS

STATION/POSITION TIME  TEMP    WIND        PRES    WAVE   SWELL
                       AIR SEA DIR/SP/G            HT/PER HT/PER
                 (UTC) (F)     (DEG/KT/KT) (MB)    (FT/S) (FT/S)
CHESAPEAKE LIGHT 1800   41     350/ 19/ 20 1009.0
64 E VA BEACH    1750   46 52  360/ 23/ 29 1004.8   10/ 7
DUCK             1800   42 42  360/ 20/ 22 1006.5
2 E DUCK         1811      42                N/A     6/ 6   2/11
10 NE DUCK       NOT AVBL
OREGON INLET     1800   42 58  350/ 17/ 23 1006.8
HATTERAS CG      1800      60   20/ 23/ 26 1006.0
CAPE LOOKOUT     1800   52      40/ 21/ 24 1004.6
BEAUFORT LAB     1800      58   30/ 12/ 18 1004.5
27 SE WRIGHTSVLE 1800   62 65  240/ 17/ 21 1005.8
5 SE WRIGHTSVLE  1800   61 58  230/ 12/ 16 1003.7
225 S CAPE HAT   1750   71 69  220/ 21/ 27 1007.9   11/ 8   2/13
41 SE CHARLESTON 1750   68 70  230/ 21/ 25 1004.6    6/ 6   3/ 8

$$


USA.gov is the U.S. government's official web portal to all federal, state and local government web resources and services.